ニート彗星

240P/NEAT (2018)

English version
Home page
Updated on November 7, 2017

---------------------------------------------------------------------

・ プロフィール

・ 写真集

・ 軌道要素

Epoch 2018 May 2.0 TT = JDT 2458240.5
T 2018 May 15.88027 TT                                  MPCW
q   2.1337771            (2000.0)            P               Q
n   0.12934581     Peri.  352.09907     +0.37930947     -0.84132753
a   3.8722894      Node    74.92641     +0.86923356     +0.18137395
e   0.4489624      Incl.   23.50377     +0.31710778     +0.50918707
P   7.62
From 1630 observations 2002 Oct. 5-2017 July 8, mean residual 0".7.
     Nongravitational parameters A1 = +1.93, A2 = +0.1287.

・ 星図

・ 光度変化

        m1 = 0.0 + 5 logΔ + 30 log r

        ※ 灰色の曲線は、m1 = 7.8 + 5 logΔ + 20.0 log r の光度曲線です。

---------------------------------------------------------------------

軌道要素はM.P.E.C. 2017-N71に掲載されたものです。
星図はステラナビゲータ Ver.10 (アストロアーツ) で作成したものです。
光度グラフはComet for Windowsで作成したものです。

---------------------------------------------------------------------

Copyright(C) Seiichi Yoshida (comet@aerith.net). All rights reserved.